Palmer, AK

5:40 AM AKDT on April 28, 2017 (GMT -0800)
Palmer Municipal

Weather History for PAAQ - January, 2013

Change the Weather History Date:

Saturday, January 5, 2013

  Actual Average Record
Temperature  
Mean Temperature 34 °F -  
Max Temperature 36 °F 17 °F 46 °F (1960)
Min Temperature 32 °F 2 °F -37 °F (1975)
Degree Days  
Heating Degree Days 31    
Moisture  
Dew Point 18 °F    
Average Humidity 54    
Maximum Humidity 64    
Minimum Humidity 48    
Precipitation  
Precipitation 0.00 in - - ()
Sea Level Pressure  
Sea Level Pressure 29.46 in    
Wind  
Wind Speed 8 mph (North)    
Max Wind Speed 12 mph    
Max Gust Speed -    
Visibility 10 miles    
Events      
Averages and records for this station are not official NWS values.
T = Trace of Precipitation, MM = Missing Value Source: NWS Daily Summary

Daily Weather History Graph

Daily Weather History Graph

Search for Another Location

Airport or City:

Trip Planner

Search our weather history database for the weather conditions in past years. The results will help you decide how hot, cold, wet, or windy it might be!

Date:

Astronomy

Jan. 05, 2013 Rise Set
Actual Time 10:10 AM AKST 3:53 PM AKST
Civil Twilight 9:09 AM AKST 4:54 PM AKST
Nautical Twilight 8:10 AM AKST 5:54 PM AKST
Astronomical Twilight 7:16 AM AKST 6:47 PM AKST
Moon 2:22 AM AKST (1/5) 11:48 AM AKST (1/5)
Length of Visible Light 7h 45m
Length of Day
5h 43m
Last Quarter, 42% of the Moon is Illuminated
Jan 5
Last Quarter
Jan 11
New
Jan 18
First Quarter
Jan 26
Full
Feb 3
Last Quarter

Hourly Weather History & Observations

Time (AKST) Temp. Windchill Dew Point Humidity Pressure Visibility Wind Dir Wind Speed Gust Speed Precip Events Conditions
12:53 AM 32.0 °F 23.6 °F 16.0 °F 52% 29.74 in 10.0 mi North 10.4 mph - N/A   Overcast
1:53 AM 33.1 °F 26.9 °F 17.1 °F 52% 29.72 in 10.0 mi North 6.9 mph - N/A   Overcast
2:53 AM 33.1 °F 26.9 °F 16.0 °F 50% 29.69 in 10.0 mi North 6.9 mph - N/A   Overcast
3:53 AM 33.1 °F 27.7 °F 17.1 °F 52% 29.66 in 10.0 mi NNW 5.8 mph - N/A   Overcast
4:53 AM 32.0 °F 27.5 °F 16.0 °F 52% 29.62 in 10.0 mi North 4.6 mph - N/A   Scattered Clouds
5:53 AM 32.0 °F 24.2 °F 17.1 °F 54% 29.58 in 10.0 mi North 9.2 mph - N/A   Partly Cloudy
6:53 AM 32.0 °F 24.8 °F 17.1 °F 54% 29.56 in 10.0 mi North 8.1 mph - N/A   Partly Cloudy
7:53 AM 33.1 °F 26.1 °F 18.0 °F 54% 29.54 in 10.0 mi North 8.1 mph - N/A   Partly Cloudy
8:53 AM 33.1 °F 24.4 °F 18.0 °F 54% 29.51 in 10.0 mi North 11.5 mph - N/A   Partly Cloudy
9:53 AM 34.0 °F 27.2 °F 18.0 °F 52% 29.48 in 10.0 mi NNE 8.1 mph - N/A   Clear
10:53 AM 35.1 °F 27.4 °F 18.0 °F 50% 29.45 in 10.0 mi North 10.4 mph - N/A   Mostly Cloudy
11:53 AM 36.0 °F 31.1 °F 18.0 °F 48% 29.43 in 10.0 mi North 5.8 mph - N/A   Mostly Cloudy
12:53 PM 35.1 °F 27.9 °F 18.0 °F 50% 29.41 in 10.0 mi North 9.2 mph - N/A   Overcast
1:53 PM 36.0 °F 29.0 °F 18.0 °F 48% 29.37 in 10.0 mi NNE 9.2 mph - N/A   Overcast
2:53 PM 36.0 °F 29.6 °F 18.0 °F 48% 29.34 in 10.0 mi North 8.1 mph - N/A   Overcast
3:53 PM 34.0 °F 28.0 °F 19.0 °F 54% 29.33 in 10.0 mi North 6.9 mph - N/A   Overcast
4:53 PM 34.0 °F 27.2 °F 18.0 °F 52% 29.32 in 10.0 mi North 8.1 mph - N/A   Overcast
5:53 PM 33.1 °F 27.7 °F 19.0 °F 56% 29.32 in 10.0 mi Variable 5.8 mph - N/A   Overcast
6:53 PM 32.0 °F 23.6 °F 19.9 °F 61% 29.32 in 10.0 mi North 10.4 mph - N/A   Overcast
7:53 PM 32.0 °F 24.8 °F 21.0 °F 64% 29.32 in 10.0 mi North 8.1 mph - N/A   Overcast
8:53 PM 33.1 °F 27.7 °F 21.0 °F 61% 29.32 in 10.0 mi NNW 5.8 mph - N/A   Overcast
9:53 PM 33.1 °F 26.1 °F 18.0 °F 54% 29.32 in 10.0 mi North 8.1 mph - N/A   Overcast
10:53 PM 34.0 °F 28.8 °F 21.0 °F 59% 29.33 in 10.0 mi North 5.8 mph - N/A   Mostly Cloudy
11:53 PM 35.1 °F 29.3 °F 24.1 °F 64% 29.35 in 10.0 mi NNE 6.9 mph - N/A   Overcast